Private Wetterstation Wechselburg
Wetterdaten: Dienstag, 09.03.2021
Datum Zeit Temp. +2m Bodentemp. Temp.+5cm Temp. Wind Windchill X Diff Temp. Feuchte +2m Feuchte +5cm Luftdruck Regen Wind Richtung Richtung Sonnenschein Taupunkt Windchill Windben
09.03.2021 00:00 -4,1 C 4,6 C -4,1 C -4,6 C -5,6 C 0,0 C 82 % 88 % 1023,9 hPa 0,0 l/m 0,0 km/h (0 Bft) NO 45 0 min -6,7 C -5,6 C 0,0 km/h (0 Bft)
09.03.2021 00:05 -4,1 C 4,6 C -4,1 C -4,6 C -5,6 C 0,0 C 82 % 88 % 1023,9 hPa 0,0 l/m 0,0 km/h (0 Bft) NO 45 0 min -6,7 C -5,6 C 0,0 km/h (0 Bft)
09.03.2021 00:10 -4,1 C 4,6 C -4,1 C -4,6 C -5,6 C 0,0 C 82 % 88 % 1023,8 hPa 0,0 l/m 0,0 km/h (0 Bft) NO 45 0 min -6,7 C -5,6 C 0,0 km/h (0 Bft)
09.03.2021 00:15 -4,1 C 4,6 C -4,1 C -4,6 C -5,5 C 0,0 C 83 % 88 % 1023,8 hPa 0,0 l/m 0,0 km/h (0 Bft) NO 45 0 min -6,5 C -5,5 C 0,0 km/h (0 Bft)
09.03.2021 00:20 -4,1 C 4,6 C -4,1 C -4,5 C -5,4 C 0,0 C 83 % 88 % 1023,8 hPa 0,0 l/m 0,0 km/h (0 Bft) NO 45 0 min -6,5 C -5,4 C 0,0 km/h (0 Bft)
09.03.2021 00:25 -4,1 C 4,6 C -4,1 C -4,6 C -5,6 C 0,0 C 83 % 88 % 1023,8 hPa 0,0 l/m 0,0 km/h (0 Bft) NO 45 0 min -6,5 C -5,6 C 0,0 km/h (0 Bft)
09.03.2021 00:30 -4,1 C 4,6 C -4,0 C -4,6 C -5,6 C 0,0 C 83 % 89 % 1023,6 hPa 0,0 l/m 0,0 km/h (0 Bft) NO 45 0 min -6,5 C -5,6 C 0,0 km/h (0 Bft)
09.03.2021 00:35 -4,1 C 4,6 C -4,0 C -4,6 C -5,6 C 0,0 C 83 % 89 % 1023,6 hPa 0,0 l/m 0,0 km/h (0 Bft) NO 45 0 min -6,5 C -5,6 C 0,0 km/h (0 Bft)
09.03.2021 00:40 -4,1 C 4,6 C -4,1 C -4,6 C -5,6 C 0,0 C 83 % 89 % 1023,6 hPa 0,0 l/m 0,0 km/h (0 Bft) NO 45 0 min -6,5 C -5,6 C 0,0 km/h (0 Bft)
09.03.2021 00:45 -4,1 C 4,6 C -4,1 C -4,6 C -5,5 C 0,0 C 83 % 89 % 1023,6 hPa 0,0 l/m 0,0 km/h (0 Bft) NO 45 0 min -6,5 C -5,5 C 0,0 km/h (0 Bft)
09.03.2021 00:50 -4,1 C 4,6 C -4,0 C -4,5 C -5,4 C 0,0 C 83 % 89 % 1023,6 hPa 0,0 l/m 0,0 km/h (0 Bft) NO 45 0 min -6,5 C -5,4 C 0,0 km/h (0 Bft)
09.03.2021 00:55 -4,1 C 4,6 C -4,0 C -4,5 C -5,3 C 0,0 C 83 % 89 % 1023,6 hPa 0,0 l/m 0,0 km/h (0 Bft) NO 45 0 min -6,5 C -5,3 C 0,0 km/h (0 Bft)
09.03.2021 01:00 -4,1 C 4,6 C -4,0 C -4,5 C -5,3 C 0,0 C 83 % 89 % 1023,6 hPa 0,0 l/m 0,0 km/h (0 Bft) NO 45 0 min -6,5 C -5,3 C 0,0 km/h (0 Bft)
09.03.2021 01:05 -4,1 C 4,6 C -4,0 C -4,5 C -5,3 C 0,0 C 83 % 89 % 1023,6 hPa 0,0 l/m 0,0 km/h (0 Bft) NO 45 0 min -6,5 C -5,3 C 0,0 km/h (0 Bft)
09.03.2021 01:10 -4,1 C 4,6 C -4,1 C -4,5 C -5,4 C 0,0 C 83 % 89 % 1023,6 hPa 0,0 l/m 0,0 km/h (0 Bft) NO 45 0 min -6,5 C -5,4 C 0,0 km/h (0 Bft)
09.03.2021 01:15 -4,1 C 4,6 C -4,0 C -4,5 C -5,4 C 0,0 C 83 % 89 % 1023,6 hPa 0,0 l/m 0,0 km/h (0 Bft) NO 45 0 min -6,5 C -5,4 C 0,0 km/h (0 Bft)
09.03.2021 01:20 -4,1 C 4,5 C -4,0 C -4,5 C -5,4 C 0,0 C 84 % 89 % 1023,6 hPa 0,0 l/m 0,0 km/h (0 Bft) NO 45 0 min -6,4 C -5,4 C 0,0 km/h (0 Bft)
09.03.2021 01:25 -4,1 C 4,6 C -4,0 C -4,5 C -5,4 C 0,0 C 84 % 89 % 1023,6 hPa 0,0 l/m 0,0 km/h (0 Bft) NO 45 0 min -6,4 C -5,4 C 0,0 km/h (0 Bft)
09.03.2021 01:30 -4,1 C 4,6 C -3,9 C -4,5 C -5,4 C 0,0 C 84 % 89 % 1023,6 hPa 0,0 l/m 0,0 km/h (0 Bft) NO 45 0 min -6,4 C -5,4 C 0,0 km/h (0 Bft)
09.03.2021 01:35 -4,1 C 4,5 C -3,9 C -4,5 C -5,4 C 0,0 C 84 % 89 % 1023,6 hPa 0,0 l/m 0,0 km/h (0 Bft) NO 45 0 min -6,4 C -5,4 C 0,0 km/h (0 Bft)
09.03.2021 01:40 -4,1 C 4,5 C -4,0 C -4,6 C -5,5 C 0,0 C 84 % 89 % 1023,6 hPa 0,0 l/m 0,0 km/h (0 Bft) NO 45 0 min -6,4 C -5,5 C 0,0 km/h (0 Bft)
09.03.2021 01:45 -4,1 C 4,5 C -4,0 C -4,6 C -5,6 C 0,0 C 84 % 89 % 1023,6 hPa 0,0 l/m 0,0 km/h (0 Bft) NO 45 0 min -6,4 C -5,6 C 0,0 km/h (0 Bft)
09.03.2021 01:50 -4,1 C 4,5 C -4,0 C -4,6 C -5,6 C 0,0 C 84 % 89 % 1023,7 hPa 0,0 l/m 0,0 km/h (0 Bft) NO 45 0 min -6,4 C -5,6 C 0,0 km/h (0 Bft)
09.03.2021 01:55 -4,1 C 4,5 C -4,0 C -4,6 C -5,6 C 0,0 C 84 % 89 % 1023,7 hPa 0,0 l/m 0,0 km/h (0 Bft) NO 45 0 min -6,4 C -5,6 C 0,0 km/h (0 Bft)
09.03.2021 02:00 -4,1 C 4,5 C -4,0 C -4,6 C -5,6 C 0,0 C 84 % 90 % 1023,7 hPa 0,0 l/m 0,0 km/h (0 Bft) NO 45 0 min -6,4 C -5,6 C 0,0 km/h (0 Bft)
09.03.2021 02:05 -4,1 C 4,5 C -4,0 C -4,6 C -5,5 C 0,0 C 84 % 90 % 1023,7 hPa 0,0 l/m 0,0 km/h (0 Bft) NO 45 0 min -6,4 C -5,5 C 0,0 km/h (0 Bft)
09.03.2021 02:10 -4,3 C 4,5 C -4,0 C -4,7 C -5,4 C 0,0 C 84 % 90 % 1023,2 hPa 0,0 l/m 0,0 km/h (0 Bft) NO 45 0 min -6,6 C -5,4 C 0,0 km/h (0 Bft)
09.03.2021 02:15 -4,3 C 4,5 C -4,0 C -4,7 C -5,4 C 0,0 C 84 % 90 % 1023,2 hPa 0,0 l/m 0,0 km/h (0 Bft) NO 45 0 min -6,6 C -5,4 C 0,0 km/h (0 Bft)
09.03.2021 02:20 -4,1 C 4,5 C -4,0 C -4,5 C -5,4 C 0,0 C 85 % 90 % 1023,2 hPa 0,0 l/m 0,0 km/h (0 Bft) NO 45 0 min -6,2 C -5,4 C 0,0 km/h (0 Bft)
09.03.2021 02:25 -4,1 C 4,5 C -4,0 C -4,6 C -5,5 C 0,0 C 85 % 90 % 1023,2 hPa 0,0 l/m 0,0 km/h (0 Bft) NO 45 0 min -6,2 C -5,5 C 0,0 km/h (0 Bft)
09.03.2021 02:30 -4,1 C 4,5 C -4,0 C -4,6 C -5,5 C 0,0 C 85 % 90 % 1023,4 hPa 0,0 l/m 0,0 km/h (0 Bft) NO 45 0 min -6,2 C -5,5 C 0,0 km/h (0 Bft)
09.03.2021 02:35 -4,3 C 4,4 C -4,0 C -4,7 C -5,5 C 0,0 C 85 % 90 % 1023,4 hPa 0,0 l/m 0,0 km/h (0 Bft) NO 45 0 min -6,4 C -5,5 C 0,0 km/h (0 Bft)
09.03.2021 02:40 -4,3 C 4,4 C -3,9 C -4,7 C -5,4 C 0,0 C 85 % 90 % 1023,4 hPa 0,0 l/m 0,0 km/h (0 Bft) NO 45 0 min -6,4 C -5,4 C 0,0 km/h (0 Bft)
09.03.2021 02:45 -4,1 C 4,4 C -4,0 C -4,5 C -5,4 C 0,0 C 85 % 90 % 1023,4 hPa 0,0 l/m 0,0 km/h (0 Bft) NO 45 0 min -6,2 C -5,4 C 0,0 km/h (0 Bft)
09.03.2021 02:50 -4,1 C 4,4 C -4,0 C -4,5 C -5,3 C 0,0 C 85 % 90 % 1023,2 hPa 0,0 l/m 0,0 km/h (0 Bft) NO 45 0 min -6,2 C -5,3 C 0,0 km/h (0 Bft)
09.03.2021 02:55 -4,1 C 4,4 C -3,9 C -4,5 C -5,3 C 0,0 C 85 % 90 % 1023,2 hPa 0,0 l/m 0,0 km/h (0 Bft) NO 45 0 min -6,2 C -5,3 C 0,0 km/h (0 Bft)
09.03.2021 03:00 -4,1 C 4,4 C -3,9 C -4,4 C -5,1 C 0,0 C 85 % 90 % 1023,2 hPa 0,0 l/m 0,0 km/h (0 Bft) NO 45 0 min -6,2 C -5,1 C 0,0 km/h (0 Bft)
09.03.2021 03:05 -4,1 C 4,4 C -3,9 C -4,4 C -5,1 C 0,0 C 85 % 90 % 1023,2 hPa 0,0 l/m 0,0 km/h (0 Bft) NO 45 0 min -6,2 C -5,1 C 0,0 km/h (0 Bft)
09.03.2021 03:10 -4,1 C 4,4 C -3,9 C -4,4 C -5,1 C 0,0 C 85 % 90 % 1022,8 hPa 0,0 l/m 0,0 km/h (0 Bft) NO 45 0 min -6,2 C -5,1 C 0,0 km/h (0 Bft)
09.03.2021 03:15 -4,1 C 4,4 C -3,9 C -4,4 C -5,1 C 0,0 C 85 % 90 % 1022,8 hPa 0,0 l/m 0,0 km/h (0 Bft) NO 45 0 min -6,2 C -5,1 C 0,0 km/h (0 Bft)
09.03.2021 03:20 -4,1 C 4,4 C -3,8 C -4,3 C -4,8 C 0,0 C 86 % 90 % 1022,8 hPa 0,0 l/m 0,0 km/h (0 Bft) NO 45 0 min -6,1 C -4,8 C 0,0 km/h (0 Bft)
09.03.2021 03:25 -4,0 C 4,4 C -3,8 C -4,3 C -4,8 C 0,0 C 86 % 90 % 1022,8 hPa 0,0 l/m 0,0 km/h (0 Bft) NO 45 0 min -6,0 C -4,8 C 0,0 km/h (0 Bft)
09.03.2021 03:30 -4,0 C 4,4 C -3,7 C -4,3 C -4,9 C 0,0 C 86 % 90 % 1022,7 hPa 0,0 l/m 0,0 km/h (0 Bft) NO 45 0 min -6,0 C -4,9 C 0,0 km/h (0 Bft)
09.03.2021 03:35 -4,0 C 4,4 C -3,8 C -4,3 C -4,9 C 0,0 C 86 % 90 % 1022,7 hPa 0,0 l/m 0,0 km/h (0 Bft) NO 45 0 min -6,0 C -4,9 C 0,0 km/h (0 Bft)
09.03.2021 03:40 -4,0 C 4,4 C -3,7 C -4,3 C -4,8 C 0,0 C 86 % 90 % 1022,7 hPa 0,0 l/m 0,0 km/h (0 Bft) NO 45 0 min -6,0 C -4,8 C 0,0 km/h (0 Bft)
09.03.2021 03:45 -4,0 C 4,4 C -3,7 C -4,3 C -4,9 C 0,0 C 86 % 90 % 1022,7 hPa 0,0 l/m 0,0 km/h (0 Bft) NO 45 0 min -6,0 C -4,9 C 0,0 km/h (0 Bft)
09.03.2021 03:50 -4,0 C 4,4 C -3,7 C -4,3 C -4,9 C 0,0 C 86 % 90 % 1022,6 hPa 0,0 l/m 0,0 km/h (0 Bft) NO 45 0 min -6,0 C -4,9 C 0,0 km/h (0 Bft)
09.03.2021 03:55 -3,9 C 4,4 C -3,7 C -4,2 C -4,8 C 0,0 C 86 % 90 % 1022,6 hPa 0,0 l/m 0,0 km/h (0 Bft) NO 45 0 min -5,9 C -4,8 C 0,0 km/h (0 Bft)
09.03.2021 04:00 -3,9 C 4,4 C -3,7 C -4,2 C -4,7 C 0,0 C 86 % 90 % 1022,6 hPa 0,0 l/m 0,0 km/h (0 Bft) NO 45 0 min -5,9 C -4,7 C 0,0 km/h (0 Bft)
09.03.2021 04:05 -3,9 C 4,4 C -3,7 C -4,2 C -4,7 C 0,0 C 86 % 90 % 1022,6 hPa 0,0 l/m 0,0 km/h (0 Bft) NO 45 0 min -5,9 C -4,7 C 0,0 km/h (0 Bft)
09.03.2021 04:10 -3,9 C 4,4 C -3,6 C -4,2 C -4,8 C 0,0 C 86 % 90 % 1022,6 hPa 0,0 l/m 0,0 km/h (0 Bft) NO 45 0 min -5,9 C -4,8 C 0,0 km/h (0 Bft)
09.03.2021 04:15 -3,9 C 4,4 C -3,6 C -4,1 C -4,6 C 0,0 C 86 % 90 % 1022,6 hPa 0,0 l/m 0,0 km/h (0 Bft) NO 45 0 min -5,9 C -4,6 C 0,0 km/h (0 Bft)
09.03.2021 04:20 -3,7 C 4,4 C -3,5 C -4,0 C -4,5 C 0,0 C 86 % 90 % 1022,6 hPa 0,0 l/m 0,0 km/h (0 Bft) NO 45 0 min -5,7 C -4,5 C 0,0 km/h (0 Bft)
09.03.2021 04:25 -3,7 C 4,4 C -3,5 C -4,0 C -4,5 C 0,0 C 86 % 90 % 1022,6 hPa 0,0 l/m 0,0 km/h (0 Bft) NO 45 0 min -5,7 C -4,5 C 0,0 km/h (0 Bft)
09.03.2021 04:30 -3,7 C 4,3 C -3,5 C -4,0 C -4,6 C 0,0 C 86 % 90 % 1022,6 hPa 0,0 l/m 0,0 km/h (0 Bft) NO 45 0 min -5,7 C -4,6 C 0,0 km/h (0 Bft)
09.03.2021 04:35 -3,7 C 4,3 C -3,6 C -4,0 C -4,6 C 0,0 C 86 % 90 % 1022,6 hPa 0,0 l/m 0,0 km/h (0 Bft) NO 45 0 min -5,7 C -4,6 C 0,0 km/h (0 Bft)
09.03.2021 04:40 -3,7 C 4,3 C -3,6 C -4,0 C -4,7 C 0,0 C 86 % 90 % 1022,6 hPa 0,0 l/m 0,0 km/h (0 Bft) NO 45 0 min -5,7 C -4,7 C 0,0 km/h (0 Bft)
09.03.2021 04:45 -3,7 C 4,3 C -3,5 C -4,1 C -4,8 C 0,0 C 86 % 90 % 1022,6 hPa 0,0 l/m 0,0 km/h (0 Bft) NO 45 0 min -5,7 C -4,8 C 0,0 km/h (0 Bft)
09.03.2021 04:50 -3,7 C 4,3 C -3,5 C -4,1 C -4,8 C 0,0 C 86 % 90 % 1022,1 hPa 0,0 l/m 0,0 km/h (0 Bft) NO 45 0 min -5,7 C -4,8 C 0,0 km/h (0 Bft)
09.03.2021 04:55 -3,7 C 4,3 C -3,6 C -4,1 C -4,8 C 0,0 C 86 % 90 % 1022,1 hPa 0,0 l/m 0,0 km/h (0 Bft) NO 45 0 min -5,7 C -4,8 C 0,0 km/h (0 Bft)
09.03.2021 05:00 -3,7 C 4,3 C -3,6 C -4,0 C -4,7 C 0,0 C 86 % 90 % 1022,1 hPa 0,0 l/m 0,0 km/h (0 Bft) NO 45 0 min -5,7 C -4,7 C 0,0 km/h (0 Bft)
09.03.2021 05:05 -3,7 C 4,3 C -3,5 C -4,0 C -4,6 C 0,0 C 86 % 90 % 1022,1 hPa 0,0 l/m 0,0 km/h (0 Bft) NO 45 0 min -5,7 C -4,6 C 0,0 km/h (0 Bft)
09.03.2021 05:10 -3,7 C 4,3 C -3,5 C -4,0 C -4,5 C 0,0 C 86 % 90 % 1022,4 hPa 0,0 l/m 0,0 km/h (0 Bft) NO 45 0 min -5,7 C -4,5 C 0,0 km/h (0 Bft)
09.03.2021 05:15 -3,7 C 4,3 C -3,4 C -4,0 C -4,6 C 0,0 C 86 % 90 % 1022,4 hPa 0,0 l/m 0,0 km/h (0 Bft) NO 45 0 min -5,7 C -4,6 C 0,0 km/h (0 Bft)
09.03.2021 05:20 -3,7 C 4,3 C -3,4 C -4,0 C -4,5 C 0,0 C 86 % 90 % 1022,4 hPa 0,0 l/m 0,0 km/h (0 Bft) NO 45 0 min -5,7 C -4,5 C 0,0 km/h (0 Bft)
09.03.2021 05:25 -3,7 C 4,3 C -3,4 C -4,0 C -4,5 C 0,0 C 86 % 90 % 1022,4 hPa 0,0 l/m 0,0 km/h (0 Bft) NO 45 0 min -5,7 C -4,5 C 0,0 km/h (0 Bft)
09.03.2021 05:30 -3,7 C 4,3 C -3,4 C -4,0 C -4,5 C 0,0 C 86 % 90 % 1022,1 hPa 0,0 l/m 0,0 km/h (0 Bft) NO 45 0 min -5,7 C -4,5 C 0,0 km/h (0 Bft)
09.03.2021 05:35 -3,7 C 4,3 C -3,4 C -4,0 C -4,5 C 0,0 C 86 % 90 % 1022,1 hPa 0,0 l/m 0,0 km/h (0 Bft) NO 45 0 min -5,7 C -4,5 C 0,0 km/h (0 Bft)
09.03.2021 05:40 -3,7 C 4,3 C -3,3 C -4,0 C -4,5 C 0,0 C 86 % 90 % 1022,1 hPa 0,0 l/m 0,0 km/h (0 Bft) NO 45 0 min -5,7 C -4,5 C 0,0 km/h (0 Bft)
09.03.2021 05:45 -3,7 C 4,3 C -3,3 C -4,0 C -4,5 C 0,0 C 87 % 90 % 1022,1 hPa 0,0 l/m 0,0 km/h (0 Bft) NO 45 0 min -5,5 C -4,5 C 0,0 km/h (0 Bft)
09.03.2021 05:50 -3,7 C 4,3 C -3,3 C -4,0 C -4,5 C 0,0 C 87 % 90 % 1021,9 hPa 0,0 l/m 0,0 km/h (0 Bft) NO 45 0 min -5,5 C -4,5 C 0,0 km/h (0 Bft)
09.03.2021 05:55 -3,7 C 4,2 C -3,3 C -4,0 C -4,5 C 0,0 C 87 % 90 % 1021,9 hPa 0,0 l/m 0,0 km/h (0 Bft) NO 45 0 min -5,5 C -4,5 C 0,0 km/h (0 Bft)
09.03.2021 06:00 -3,7 C 4,2 C -3,3 C -4,0 C -4,5 C 0,0 C 87 % 90 % 1021,9 hPa 0,0 l/m 0,0 km/h (0 Bft) NO 45 0 min -5,5 C -4,5 C 0,0 km/h (0 Bft)
09.03.2021 06:05 -3,6 C 4,2 C -3,3 C -3,9 C -4,4 C 0,0 C 87 % 90 % 1021,9 hPa 0,0 l/m 0,0 km/h (0 Bft) NO 45 0 min -5,4 C -4,4 C 0,0 km/h (0 Bft)
09.03.2021 06:10 -3,6 C 4,2 C -3,3 C -3,9 C -4,5 C 0,0 C 87 % 90 % 1021,6 hPa 0,0 l/m 0,0 km/h (0 Bft) NO 45 0 min -5,4 C -4,5 C 0,0 km/h (0 Bft)
09.03.2021 06:15 -3,6 C 4,2 C -3,3 C -3,9 C -4,4 C 0,0 C 87 % 90 % 1021,6 hPa 0,0 l/m 0,0 km/h (0 Bft) NO 45 0 min -5,4 C -4,4 C 0,0 km/h (0 Bft)
09.03.2021 06:20 -3,6 C 4,2 C -3,3 C -3,8 C -4,2 C 0,0 C 87 % 90 % 1021,6 hPa 0,0 l/m 0,0 km/h (0 Bft) NO 45 0 min -5,4 C -4,2 C 0,0 km/h (0 Bft)
09.03.2021 06:25 -3,5 C 4,2 C -3,3 C -3,7 C -4,2 C 0,0 C 87 % 90 % 1021,6 hPa 0,0 l/m 0,0 km/h (0 Bft) NO 45 0 min -5,3 C -4,2 C 0,0 km/h (0 Bft)
09.03.2021 06:30 -3,5 C 4,2 C -3,3 C -3,8 C -4,3 C 0,0 C 87 % 90 % 1021,9 hPa 0,0 l/m 0,0 km/h (0 Bft) NO 45 0 min -5,3 C -4,3 C 0,0 km/h (0 Bft)
09.03.2021 06:35 -3,5 C 4,2 C -3,3 C -3,8 C -4,3 C 0,0 C 87 % 90 % 1021,9 hPa 0,0 l/m 0,0 km/h (0 Bft) NO 45 0 min -5,3 C -4,3 C 0,0 km/h (0 Bft)
09.03.2021 06:40 -3,5 C 4,2 C -3,3 C -3,8 C -4,4 C 0,0 C 87 % 90 % 1021,9 hPa 0,0 l/m 0,0 km/h (0 Bft) NO 45 0 min -5,3 C -4,4 C 0,0 km/h (0 Bft)
09.03.2021 06:45 -3,5 C 4,2 C -3,3 C -3,8 C -4,4 C 0,0 C 87 % 90 % 1021,9 hPa 0,0 l/m 0,0 km/h (0 Bft) NO 45 0 min -5,3 C -4,4 C 0,0 km/h (0 Bft)
09.03.2021 06:50 -3,6 C 4,2 C -3,3 C -3,9 C -4,4 C 0,0 C 87 % 91 % 1021,6 hPa 0,0 l/m 0,0 km/h (0 Bft) NO 45 0 min -5,4 C -4,4 C 0,0 km/h (0 Bft)
09.03.2021 06:55 -3,6 C 4,2 C -3,3 C -3,9 C -4,4 C 0,0 C 87 % 91 % 1021,6 hPa 0,0 l/m 0,0 km/h (0 Bft) NO 45 0 min -5,4 C -4,4 C 0,0 km/h (0 Bft)
09.03.2021 07:00 -3,5 C 4,2 C -3,2 C -3,8 C -4,3 C 0,0 C 87 % 91 % 1021,6 hPa 0,0 l/m 0,0 km/h (0 Bft) NO 45 0 min -5,3 C -4,3 C 0,0 km/h (0 Bft)
09.03.2021 07:05 -3,5 C 4,2 C -3,2 C -3,7 C -4,2 C 0,0 C 87 % 91 % 1021,6 hPa 0,0 l/m 0,0 km/h (0 Bft) NO 45 0 min -5,3 C -4,2 C 0,0 km/h (0 Bft)
09.03.2021 07:10 -3,3 C 4,2 C -3,1 C -3,6 C -4,1 C 0,0 C 87 % 91 % 1021,9 hPa 0,0 l/m 0,0 km/h (0 Bft) NO 45 0 min -5,1 C -4,1 C 0,0 km/h (0 Bft)
09.03.2021 07:15 -3,3 C 4,2 C -3,1 C -3,6 C -4,1 C 0,0 C 87 % 91 % 1021,9 hPa 0,0 l/m 0,0 km/h (0 Bft) NO 45 0 min -5,1 C -4,1 C 0,0 km/h (0 Bft)
09.03.2021 07:20 -3,3 C 4,2 C -3,0 C -3,5 C -4,0 C 0,0 C 87 % 91 % 1021,9 hPa 0,0 l/m 0,0 km/h (0 Bft) NO 45 0 min -5,1 C -4,0 C 0,0 km/h (0 Bft)
09.03.2021 07:25 -3,3 C 4,2 C -2,9 C -3,5 C -3,9 C 0,0 C 87 % 91 % 1021,9 hPa 0,0 l/m 0,0 km/h (0 Bft) NO 45 0 min -5,1 C -3,9 C 0,0 km/h (0 Bft)
09.03.2021 07:30 -3,3 C 4,2 C -2,9 C -3,5 C -3,8 C 0,0 C 87 % 90 % 1021,4 hPa 0,0 l/m 0,0 km/h (0 Bft) NO 45 0 min -5,1 C -3,8 C 0,0 km/h (0 Bft)
09.03.2021 07:35 -3,3 C 4,2 C -2,8 C -3,4 C -3,7 C 0,0 C 87 % 91 % 1021,4 hPa 0,0 l/m 0,0 km/h (0 Bft) NO 45 0 min -5,1 C -3,7 C 0,0 km/h (0 Bft)
09.03.2021 07:40 -3,2 C 4,0 C -2,8 C -3,3 C -3,5 C 0,0 C 87 % 91 % 1021,4 hPa 0,0 l/m 0,0 km/h (0 Bft) NO 45 0 min -5,0 C -3,5 C 0,0 km/h (0 Bft)
09.03.2021 07:45 -3,2 C 4,0 C -2,7 C -3,3 C -3,4 C 0,0 C 87 % 91 % 1021,4 hPa 0,0 l/m 0,0 km/h (0 Bft) NO 45 0 min -5,0 C -3,4 C 0,0 km/h (0 Bft)
09.03.2021 07:50 -2,9 C 4,0 C -2,5 C -3,0 C -3,2 C 0,0 C 88 % 91 % 1021,6 hPa 0,0 l/m 0,0 km/h (0 Bft) NO 45 0 min -4,6 C -3,2 C 0,0 km/h (0 Bft)
09.03.2021 07:55 -3,0 C 4,0 C -2,4 C -3,0 C -3,0 C 0,0 C 88 % 91 % 1021,6 hPa 0,0 l/m 0,0 km/h (0 Bft) NO 45 0 min -4,7 C -3,0 C 0,0 km/h (0 Bft)
09.03.2021 08:00 -2,9 C 4,0 C -2,1 C -2,8 C -2,8 C 0,1 C 88 % 91 % 1021,6 hPa 0,0 l/m 0,0 km/h (0 Bft) NO 45 0 min -4,6 C -2,8 C 0,0 km/h (0 Bft)
09.03.2021 08:05 -2,7 C 4,0 C -2,1 C -2,6 C -2,6 C 0,1 C 88 % 91 % 1021,6 hPa 0,0 l/m 0,0 km/h (0 Bft) NO 45 0 min -4,4 C -2,6 C 0,0 km/h (0 Bft)
09.03.2021 08:10 -2,7 C 4,0 C -2,0 C -2,3 C -2,3 C 0,4 C 88 % 91 % 1021,8 hPa 0,0 l/m 0,0 km/h (0 Bft) NO 45 0 min -4,4 C -2,3 C 0,0 km/h (0 Bft)
09.03.2021 08:15 -2,5 C 4,0 C -1,9 C -2,1 C -2,1 C 0,4 C 88 % 90 % 1021,8 hPa 0,0 l/m 0,0 km/h (0 Bft) NO 45 0 min -4,2 C -2,1 C 0,0 km/h (0 Bft)
09.03.2021 08:20 -2,5 C 4,0 C -1,9 C -2,0 C -2,0 C 0,5 C 88 % 90 % 1021,8 hPa 0,0 l/m 0,0 km/h (0 Bft) NO 45 0 min -4,2 C -2,0 C 0,0 km/h (0 Bft)
09.03.2021 08:25 -2,5 C 4,0 C -1,8 C -1,8 C -1,8 C 0,7 C 88 % 90 % 1021,8 hPa 0,0 l/m 0,0 km/h (0 Bft) NO 45 0 min -4,2 C -1,8 C 0,0 km/h (0 Bft)
09.03.2021 08:30 -2,4 C 4,0 C -1,7 C -1,6 C -1,6 C 0,8 C 88 % 90 % 1021,7 hPa 0,0 l/m 0,0 km/h (0 Bft) NO 45 0 min -4,1 C -1,6 C 0,0 km/h (0 Bft)
09.03.2021 08:35 -2,3 C 4,0 C -1,6 C -1,5 C -1,5 C 0,8 C 88 % 90 % 1021,7 hPa 0,0 l/m 0,0 km/h (0 Bft) NO 45 0 min -4,0 C -1,5 C 0,0 km/h (0 Bft)
09.03.2021 08:40 -2,1 C 4,0 C -1,4 C -1,3 C -1,3 C 0,8 C 88 % 90 % 1021,7 hPa 0,0 l/m 0,0 km/h (0 Bft) NO 45 0 min -3,8 C -1,3 C 0,0 km/h (0 Bft)
09.03.2021 08:45 -2,1 C 3,9 C -1,2 C -1,1 C -1,1 C 1,0 C 88 % 90 % 1021,7 hPa 0,0 l/m 0,0 km/h (0 Bft) NO 45 0 min -3,8 C -1,1 C 0,0 km/h (0 Bft)
09.03.2021 08:50 -1,9 C 3,8 C -1,0 C -0,8 C -0,8 C 1,1 C 88 % 90 % 1021,6 hPa 0,0 l/m 0,0 km/h (0 Bft) NO 45 0 min -3,6 C -0,8 C 0,0 km/h (0 Bft)
09.03.2021 08:55 -1,9 C 3,8 C -0,8 C -0,8 C -0,8 C 1,1 C 88 % 89 % 1021,6 hPa 0,0 l/m 0,0 km/h (0 Bft) NO 45 0 min -3,6 C -0,8 C 0,0 km/h (0 Bft)
09.03.2021 09:00 -1,7 C 3,7 C -0,6 C -0,8 C -0,8 C 0,9 C 88 % 89 % 1021,6 hPa 0,0 l/m 0,0 km/h (0 Bft) NO 45 0 min -3,4 C -0,8 C 0,0 km/h (0 Bft)
09.03.2021 09:05 -1,7 C 3,7 C -0,5 C -0,7 C -0,7 C 1,0 C 88 % 88 % 1021,6 hPa 0,0 l/m 0,0 km/h (0 Bft) NO 45 0 min -3,4 C -0,7 C 0,0 km/h (0 Bft)
09.03.2021 09:10 -1,5 C 3,7 C -0,3 C -0,4 C -0,4 C 1,1 C 88 % 89 % 1021,8 hPa 0,0 l/m 0,0 km/h (0 Bft) NO 45 0 min -3,2 C -0,4 C 0,0 km/h (0 Bft)
09.03.2021 09:15 -1,5 C 3,8 C -0,1 C -0,2 C -0,2 C 1,3 C 88 % 89 % 1021,8 hPa 0,0 l/m 0,0 km/h (0 Bft) NO 45 0 min -3,2 C -0,2 C 0,0 km/h (0 Bft)
09.03.2021 09:20 -1,4 C 3,8 C 0,1 C 0,1 C 0,1 C 1,5 C 88 % 89 % 1021,8 hPa 0,0 l/m 0,0 km/h (0 Bft) NO 45 0 min -3,1 C 0,1 C 0,0 km/h (0 Bft)
09.03.2021 09:25 -1,2 C 3,7 C 0,4 C 0,3 C 0,3 C 1,5 C 88 % 88 % 1021,8 hPa 0,0 l/m 0,0 km/h (0 Bft) NO 45 0 min -2,9 C 0,3 C 0,0 km/h (0 Bft)
09.03.2021 09:30 -1,0 C 3,8 C 0,9 C 1,0 C 1,0 C 2,0 C 88 % 87 % 1021,8 hPa 0,0 l/m 0,0 km/h (0 Bft) NO 45 0 min -2,7 C 1,0 C 0,0 km/h (0 Bft)
09.03.2021 09:35 -0,8 C 3,8 C 1,3 C 1,8 C 1,8 C 2,6 C 88 % 87 % 1021,8 hPa 0,0 l/m 0,0 km/h (0 Bft) NO 45 0 min -2,5 C 1,8 C 0,0 km/h (0 Bft)
09.03.2021 09:40 -0,5 C 3,7 C 1,9 C 2,8 C 2,8 C 3,3 C 88 % 86 % 1021,8 hPa 0,0 l/m 0,0 km/h (0 Bft) NO 45 5 min -2,2 C 2,8 C 0,0 km/h (0 Bft)
09.03.2021 09:45 -0,1 C 3,7 C 2,0 C 3,0 C 3,0 C 3,1 C 88 % 86 % 1021,8 hPa 0,0 l/m 0,0 km/h (0 Bft) NO 45 0 min -1,8 C 3,0 C 0,0 km/h (0 Bft)
09.03.2021 09:50 0,1 C 3,7 C 1,9 C 3,4 C 3,4 C 3,3 C 88 % 85 % 1021,9 hPa 0,0 l/m 0,0 km/h (0 Bft) NO 45 5 min -1,6 C 3,4 C 0,0 km/h (0 Bft)
09.03.2021 09:55 0,4 C 3,7 C 2,0 C 3,4 C 3,4 C 3,0 C 87 % 84 % 1021,9 hPa 0,0 l/m 0,0 km/h (0 Bft) O 90 0 min -1,5 C 3,4 C 0,0 km/h (0 Bft)
09.03.2021 10:00 0,9 C 3,7 C 2,2 C 3,8 C 3,8 C 2,9 C 87 % 83 % 1021,9 hPa 0,0 l/m 0,0 km/h (0 Bft) O 90 0 min -1,0 C 3,8 C 0,0 km/h (0 Bft)
09.03.2021 10:05 1,2 C 3,7 C 2,2 C 4,1 C 4,1 C 2,9 C 87 % 82 % 1021,9 hPa 0,0 l/m 0,0 km/h (0 Bft) N-NO 22 0 min -0,7 C 4,1 C 0,0 km/h (0 Bft)
09.03.2021 10:10 1,6 C 3,7 C 2,4 C 4,8 C 4,8 C 3,2 C 86 % 81 % 1021,4 hPa 0,0 l/m 0,0 km/h (0 Bft) N-NO 22 0 min -0,5 C 4,8 C 0,0 km/h (0 Bft)
09.03.2021 10:15 1,7 C 3,7 C 2,7 C 5,0 C 5,0 C 3,3 C 84 % 80 % 1021,4 hPa 0,0 l/m 0,0 km/h (0 Bft) O 90 5 min -0,7 C 5,0 C 0,0 km/h (0 Bft)
09.03.2021 10:20 2,0 C 3,7 C 2,9 C 5,6 C 5,6 C 3,6 C 82 % 79 % 1021,4 hPa 0,0 l/m 0,0 km/h (0 Bft) O 90 5 min -0,7 C 5,6 C 0,0 km/h (0 Bft)
09.03.2021 10:25 2,2 C 3,6 C 2,9 C 5,7 C 5,7 C 3,5 C 81 % 78 % 1021,4 hPa 0,0 l/m 0,0 km/h (0 Bft) N-NO 22 5 min -0,7 C 5,7 C 0,0 km/h (0 Bft)
09.03.2021 10:30 2,3 C 3,6 C 3,1 C 5,4 C 5,4 C 3,1 C 78 % 77 % 1021,3 hPa 0,0 l/m 0,2 km/h (0 Bft) S 180 0 min -1,1 C 5,4 C 4,3 km/h (1 Bft)
09.03.2021 10:35 2,4 C 3,6 C 3,1 C 5,4 C 5,4 C 3,0 C 78 % 76 % 1021,3 hPa 0,0 l/m 0,2 km/h (0 Bft) S 180 0 min -1,0 C 5,4 C 0,0 km/h (0 Bft)
09.03.2021 10:40 2,5 C 3,8 C 3,2 C 5,6 C 5,6 C 3,1 C 76 % 75 % 1021,3 hPa 0,0 l/m 0,0 km/h (0 Bft) S 180 0 min -1,3 C 5,6 C 0,0 km/h (0 Bft)
09.03.2021 10:45 2,7 C 3,8 C 3,3 C 5,8 C 5,8 C 3,1 C 76 % 75 % 1021,3 hPa 0,0 l/m 0,0 km/h (0 Bft) S 180 0 min -1,1 C 5,8 C 0,0 km/h (0 Bft)
09.03.2021 10:50 2,8 C 3,8 C 3,5 C 6,3 C 6,3 C 3,5 C 75 % 74 % 1021,4 hPa 0,0 l/m 0,0 km/h (0 Bft) S 180 5 min -1,2 C 6,3 C 0,0 km/h (0 Bft)
09.03.2021 10:55 3,1 C 3,8 C 3,6 C 6,5 C 6,5 C 3,4 C 74 % 74 % 1021,4 hPa 0,0 l/m 0,0 km/h (0 Bft) S 180 5 min -1,1 C 6,5 C 0,0 km/h (0 Bft)
09.03.2021 11:00 3,2 C 3,8 C 3,7 C 6,7 C 6,7 C 3,5 C 72 % 73 % 1021,4 hPa 0,0 l/m 0,0 km/h (0 Bft) S 180 5 min -1,3 C 6,7 C 0,0 km/h (0 Bft)
09.03.2021 11:05 3,3 C 3,8 C 3,8 C 6,9 C 6,9 C 3,6 C 71 % 72 % 1021,4 hPa 0,0 l/m 0,0 km/h (0 Bft) S 180 5 min -1,4 C 6,9 C 0,0 km/h (0 Bft)
09.03.2021 11:10 3,5 C 3,7 C 3,9 C 6,7 C 6,7 C 3,2 C 69 % 69 % 1021,1 hPa 0,0 l/m 0,2 km/h (0 Bft) NO 45 0 min -1,6 C 6,7 C 0,0 km/h (0 Bft)
09.03.2021 11:15 3,5 C 3,7 C 4,1 C 6,7 C 6,7 C 3,2 C 67 % 69 % 1021,1 hPa 0,0 l/m 0,3 km/h (0 Bft) NO 45 0 min -2,0 C 6,7 C 0,0 km/h (0 Bft)
09.03.2021 11:20 3,7 C 3,7 C 4,3 C 7,2 C 7,2 C 3,5 C 67 % 67 % 1021,1 hPa 0,0 l/m 0,2 km/h (0 Bft) NO 45 5 min -1,8 C 7,2 C 0,0 km/h (0 Bft)
09.03.2021 11:25 3,9 C 3,7 C 4,5 C 7,4 C 7,4 C 3,5 C 65 % 66 % 1021,1 hPa 0,0 l/m 0,0 km/h (0 Bft) NO 45 5 min -2,1 C 7,4 C 0,0 km/h (0 Bft)
09.03.2021 11:30 3,9 C 3,7 C 4,5 C 7,3 C 7,3 C 3,4 C 63 % 65 % 1020,9 hPa 0,0 l/m 0,0 km/h (0 Bft) NO 45 5 min -2,5 C 7,3 C 0,0 km/h (0 Bft)
09.03.2021 11:35 4,0 C 3,7 C 4,6 C 7,5 C 7,5 C 3,5 C 63 % 64 % 1020,9 hPa 0,0 l/m 0,0 km/h (0 Bft) NO 45 5 min -2,4 C 7,5 C 0,0 km/h (0 Bft)
09.03.2021 11:40 4,1 C 3,7 C 4,7 C 7,9 C 7,9 C 3,8 C 62 % 63 % 1020,9 hPa 0,0 l/m 0,0 km/h (0 Bft) NO 45 5 min -2,5 C 7,9 C 0,0 km/h (0 Bft)
09.03.2021 11:45 4,3 C 3,7 C 4,8 C 7,9 C 7,9 C 3,6 C 61 % 62 % 1020,9 hPa 0,0 l/m 0,3 km/h (0 Bft) NO 45 5 min -2,5 C 7,9 C 0,0 km/h (0 Bft)
09.03.2021 11:50 4,3 C 3,8 C 5,0 C 7,9 C 7,9 C 3,6 C 60 % 62 % 1021,2 hPa 0,0 l/m 0,3 km/h (0 Bft) NO 45 5 min -2,8 C 7,9 C 0,0 km/h (0 Bft)
09.03.2021 11:55 4,5 C 3,8 C 5,1 C 8,5 C 8,5 C 4,0 C 60 % 62 % 1021,2 hPa 0,0 l/m 0,2 km/h (0 Bft) N-NW 337 5 min -2,6 C 8,5 C 0,0 km/h (0 Bft)
09.03.2021 12:00 4,7 C 3,8 C 5,1 C 9,6 C 9,6 C 4,9 C 58 % 60 % 1021,2 hPa 0,0 l/m 0,0 km/h (0 Bft) W-SW 247 5 min -2,8 C 9,6 C 0,0 km/h (0 Bft)
09.03.2021 12:05 4,8 C 3,8 C 5,1 C 10,2 C 10,2 C 5,4 C 58 % 60 % 1021,2 hPa 0,0 l/m 0,0 km/h (0 Bft) S-SO 157 5 min -2,7 C 10,2 C 0,0 km/h (0 Bft)
09.03.2021 12:10 4,8 C 3,8 C 5,1 C 10,4 C 10,4 C 5,6 C 58 % 60 % 1021,2 hPa 0,0 l/m 0,0 km/h (0 Bft) S-SO 157 5 min -2,7 C 10,4 C 0,0 km/h (0 Bft)
09.03.2021 12:15 4,8 C 3,8 C 5,1 C 10,4 C 10,4 C 5,6 C 58 % 60 % 1021,2 hPa 0,0 l/m 0,0 km/h (0 Bft) S-SO 157 5 min -2,7 C 10,4 C 0,0 km/h (0 Bft)
09.03.2021 12:20 5,7 C 3,8 C 5,2 C 11,4 C 11,4 C 5,7 C 55 % 57 % 1021,2 hPa 0,0 l/m 0,0 km/h (0 Bft) S-SO 157 5 min -2,6 C 11,4 C 0,0 km/h (0 Bft)
09.03.2021 12:25 5,5 C 3,8 C 5,2 C 10,8 C 10,8 C 5,3 C 53 % 55 % 1021,2 hPa 0,0 l/m 0,8 km/h (0 Bft) NO 45 5 min -3,3 C 10,8 C 7,2 km/h (2 Bft)
09.03.2021 12:30 5,1 C 3,8 C 5,1 C 10,0 C 10,0 C 4,9 C 51 % 54 % 1020,8 hPa 0,0 l/m 1,3 km/h (1 Bft) O-NO 67 5 min -4,2 C 10,0 C 0,0 km/h (0 Bft)
09.03.2021 12:35 5,2 C 3,9 C 5,4 C 10,1 C 10,1 C 4,9 C 51 % 54 % 1020,8 hPa 0,0 l/m 1,3 km/h (1 Bft) O-NO 67 5 min -4,1 C 10,1 C 4,7 km/h (1 Bft)
09.03.2021 12:40 5,2 C 3,9 C 5,5 C 10,3 C 10,3 C 5,1 C 52 % 52 % 1020,8 hPa 0,0 l/m 0,6 km/h (0 Bft) O-NO 67 5 min -3,8 C 10,3 C 0,0 km/h (0 Bft)
09.03.2021 12:45 5,4 C 3,9 C 5,6 C 10,6 C 10,6 C 5,2 C 51 % 52 % 1020,8 hPa 0,0 l/m 0,6 km/h (0 Bft) O-NO 67 5 min -3,9 C 10,6 C 0,0 km/h (0 Bft)
09.03.2021 12:50 5,2 C 3,9 C 5,9 C 10,4 C 10,4 C 5,2 C 49 % 51 % 1020,8 hPa 0,0 l/m 0,5 km/h (0 Bft) NO 45 5 min -4,6 C 10,4 C 7,9 km/h (2 Bft)
09.03.2021 12:55 5,2 C 3,9 C 6,0 C 10,5 C 10,5 C 5,3 C 49 % 51 % 1020,8 hPa 0,0 l/m 1,4 km/h (1 Bft) O-NO 67 5 min -4,6 C 10,5 C 3,5 km/h (1 Bft)
09.03.2021 13:00 5,3 C 3,9 C 6,1 C 10,5 C 10,5 C 5,2 C 49 % 50 % 1020,8 hPa 0,0 l/m 1,6 km/h (1 Bft) O-NO 67 5 min -4,5 C 10,5 C 1,8 km/h (1 Bft)
09.03.2021 13:05 5,3 C 3,9 C 6,1 C 10,6 C 10,6 C 5,3 C 48 % 50 % 1020,8 hPa 0,0 l/m 1,3 km/h (1 Bft) O-NO 67 5 min -4,8 C 10,6 C 0,0 km/h (0 Bft)
09.03.2021 13:10 5,2 C 3,9 C 5,9 C 10,1 C 10,1 C 4,9 C 48 % 49 % 1020,5 hPa 0,0 l/m 1,3 km/h (1 Bft) O 90 5 min -4,9 C 10,1 C 0,0 km/h (0 Bft)
09.03.2021 13:15 5,4 C 3,9 C 5,7 C 10,0 C 10,0 C 4,6 C 48 % 51 % 1020,5 hPa 0,0 l/m 1,0 km/h (0 Bft) O 90 5 min -4,7 C 10,0 C 0,0 km/h (0 Bft)
09.03.2021 13:20 5,6 C 4,0 C 5,7 C 10,1 C 10,1 C 4,5 C 48 % 50 % 1020,5 hPa 0,0 l/m 0,0 km/h (0 Bft) O 90 5 min -4,5 C 10,1 C 0,0 km/h (0 Bft)
09.03.2021 13:25 5,7 C 4,0 C 5,7 C 11,0 C 11,0 C 5,3 C 48 % 51 % 1020,5 hPa 0,0 l/m 0,0 km/h (0 Bft) O 90 5 min -4,4 C 11,0 C 0,0 km/h (0 Bft)
09.03.2021 13:30 6,1 C 4,0 C 5,8 C 12,5 C 12,5 C 6,4 C 49 % 52 % 1020,5 hPa 0,0 l/m 0,0 km/h (0 Bft) O 90 5 min -3,8 C 12,5 C 0,0 km/h (0 Bft)
09.03.2021 13:35 6,3 C 4,0 C 5,8 C 13,3 C 13,3 C 7,0 C 49 % 51 % 1020,5 hPa 0,0 l/m 0,0 km/h (0 Bft) N-NO 22 5 min -3,6 C 13,3 C 0,0 km/h (0 Bft)
09.03.2021 13:40 6,0 C 4,1 C 5,6 C 13,3 C 13,3 C 7,3 C 47 % 51 % 1020,5 hPa 0,0 l/m 0,3 km/h (0 Bft) NO 45 5 min -4,4 C 13,3 C 0,0 km/h (0 Bft)
09.03.2021 13:45 5,9 C 4,0 C 5,6 C 13,2 C 13,2 C 7,3 C 47 % 49 % 1020,5 hPa 0,0 l/m 0,2 km/h (0 Bft) S 180 5 min -4,5 C 13,2 C 0,0 km/h (0 Bft)
09.03.2021 13:50 6,0 C 4,0 C 5,7 C 14,0 C 14,0 C 8,0 C 47 % 50 % 1019,9 hPa 0,0 l/m 0,0 km/h (0 Bft) S-SO 157 5 min -4,4 C 14,0 C 1,6 km/h (1 Bft)
09.03.2021 13:55 6,1 C 4,0 C 5,8 C 13,8 C 13,8 C 7,7 C 46 % 50 % 1019,9 hPa 0,0 l/m 0,3 km/h (0 Bft) NO 45 5 min -4,6 C 13,8 C 2,9 km/h (1 Bft)
09.03.2021 14:00 6,0 C 4,1 C 5,8 C 13,0 C 13,0 C 7,0 C 46 % 49 % 1019,9 hPa 0,0 l/m 0,3 km/h (0 Bft) O-NO 67 5 min -4,7 C 13,0 C 0,0 km/h (0 Bft)
09.03.2021 14:05 6,3 C 4,1 C 5,9 C 13,4 C 13,4 C 7,1 C 46 % 49 % 1019,9 hPa 0,0 l/m 0,2 km/h (0 Bft) S-SW 202 5 min -4,5 C 13,4 C 0,0 km/h (0 Bft)
09.03.2021 14:10 6,4 C 4,1 C 5,9 C 13,8 C 13,8 C 7,4 C 46 % 50 % 1019,7 hPa 0,0 l/m 0,2 km/h (0 Bft) SW 225 5 min -4,4 C 13,8 C 0,0 km/h (0 Bft)
09.03.2021 14:15 6,7 C 4,1 C 6,2 C 14,3 C 14,3 C 7,6 C 46 % 51 % 1019,7 hPa 0,0 l/m 0,0 km/h (0 Bft) S-SO 157 5 min -4,1 C 14,3 C 0,0 km/h (0 Bft)
09.03.2021 14:20 6,8 C 4,2 C 6,4 C 14,4 C 14,4 C 7,6 C 46 % 50 % 1019,7 hPa 0,0 l/m 0,0 km/h (0 Bft) O-SO 112 5 min -4,0 C 14,4 C 0,0 km/h (0 Bft)
09.03.2021 14:25 6,8 C 4,2 C 6,5 C 14,2 C 14,2 C 7,4 C 45 % 49 % 1019,7 hPa 0,0 l/m 0,2 km/h (0 Bft) N-NO 22 5 min -4,3 C 14,2 C 0,0 km/h (0 Bft)
09.03.2021 14:30 6,7 C 4,1 C 6,6 C 14,0 C 14,0 C 7,3 C 45 % 50 % 1019,8 hPa 0,0 l/m 0,5 km/h (0 Bft) SW 225 5 min -4,4 C 14,0 C 4,3 km/h (1 Bft)
09.03.2021 14:35 6,8 C 4,1 C 6,7 C 13,8 C 13,8 C 7,0 C 45 % 49 % 1019,8 hPa 0,0 l/m 0,6 km/h (0 Bft) W-SW 247 5 min -4,3 C 13,8 C 3,4 km/h (1 Bft)
09.03.2021 14:40 7,1 C 4,1 C 6,7 C 14,0 C 14,0 C 6,9 C 45 % 48 % 1019,8 hPa 0,0 l/m 0,6 km/h (0 Bft) S 180 5 min -4,0 C 14,0 C 1,6 km/h (1 Bft)
09.03.2021 14:45 7,2 C 4,3 C 6,7 C 14,0 C 14,0 C 6,8 C 45 % 48 % 1019,8 hPa 0,0 l/m 0,3 km/h (0 Bft) NO 45 5 min -3,9 C 14,0 C 0,0 km/h (0 Bft)
09.03.2021 14:50 7,1 C 4,3 C 6,6 C 13,2 C 13,2 C 6,1 C 44 % 48 % 1019,4 hPa 0,0 l/m 0,6 km/h (0 Bft) O-NO 67 5 min -4,3 C 13,2 C 0,0 km/h (0 Bft)
09.03.2021 14:55 6,9 C 4,3 C 6,6 C 12,8 C 12,8 C 5,9 C 44 % 48 % 1019,4 hPa 0,0 l/m 0,6 km/h (0 Bft) O-NO 67 5 min -4,5 C 12,8 C 0,0 km/h (0 Bft)
09.03.2021 15:00 6,8 C 4,3 C 6,5 C 12,1 C 12,1 C 5,3 C 44 % 48 % 1019,4 hPa 0,0 l/m 0,3 km/h (0 Bft) O 90 5 min -4,6 C 12,1 C 0,0 km/h (0 Bft)
09.03.2021 15:05 6,8 C 4,3 C 6,4 C 11,8 C 11,8 C 5,0 C 44 % 48 % 1019,4 hPa 0,0 l/m 0,2 km/h (0 Bft) O-NO 67 5 min -4,6 C 11,8 C 0,0 km/h (0 Bft)
09.03.2021 15:10 6,8 C 4,3 C 6,5 C 11,4 C 11,4 C 4,6 C 44 % 48 % 1019,4 hPa 0,0 l/m 0,0 km/h (0 Bft) O 90 5 min -4,6 C 11,4 C 0,0 km/h (0 Bft)
09.03.2021 15:15 6,7 C 4,3 C 6,4 C 11,2 C 11,2 C 4,5 C 44 % 49 % 1019,4 hPa 0,0 l/m 0,0 km/h (0 Bft) S 180 5 min -4,7 C 11,2 C 0,0 km/h (0 Bft)
09.03.2021 15:20 6,8 C 4,4 C 6,5 C 11,0 C 11,0 C 4,2 C 44 % 48 % 1019,4 hPa 0,0 l/m 0,6 km/h (0 Bft) NO 45 5 min -4,6 C 11,0 C 0,0 km/h (0 Bft)
09.03.2021 15:25 6,5 C 4,4 C 6,3 C 10,8 C 10,8 C 4,3 C 43 % 47 % 1019,4 hPa 0,0 l/m 0,6 km/h (0 Bft) NO 45 5 min -5,2 C 10,8 C 0,0 km/h (0 Bft)
09.03.2021 15:30 6,4 C 4,4 C 6,2 C 10,3 C 10,3 C 3,9 C 43 % 47 % 1019,4 hPa 0,0 l/m 0,2 km/h (0 Bft) O-NO 67 5 min -5,2 C 10,3 C 0,0 km/h (0 Bft)
09.03.2021 15:35 6,4 C 4,4 C 6,2 C 10,1 C 10,1 C 3,7 C 43 % 47 % 1019,4 hPa 0,0 l/m 0,2 km/h (0 Bft) O 90 5 min -5,2 C 10,1 C 0,0 km/h (0 Bft)
09.03.2021 15:40 6,5 C 4,4 C 6,0 C 9,7 C 9,7 C 3,2 C 44 % 47 % 1019,4 hPa 0,0 l/m 0,0 km/h (0 Bft) NO 45 0 min -4,9 C 9,7 C 0,0 km/h (0 Bft)
09.03.2021 15:45 6,4 C 4,4 C 5,9 C 9,2 C 9,2 C 2,8 C 44 % 48 % 1019,4 hPa 0,0 l/m 0,0 km/h (0 Bft) O 90 0 min -4,9 C 9,2 C 0,0 km/h (0 Bft)
09.03.2021 15:50 6,4 C 4,4 C 5,7 C 8,6 C 8,6 C 2,2 C 44 % 49 % 1019,5 hPa 0,0 l/m 0,0 km/h (0 Bft) NO 45 0 min -4,9 C 8,6 C 0,0 km/h (0 Bft)
09.03.2021 15:55 6,3 C 4,4 C 5,5 C 8,1 C 8,1 C 1,8 C 44 % 49 % 1019,5 hPa 0,0 l/m 0,0 km/h (0 Bft) O-NO 67 0 min -5,0 C 8,1 C 0,0 km/h (0 Bft)
09.03.2021 16:00 6,3 C 4,4 C 5,4 C 7,8 C 7,8 C 1,5 C 44 % 49 % 1019,5 hPa 0,0 l/m 0,0 km/h (0 Bft) N-NO 22 0 min -5,0 C 7,8 C 0,0 km/h (0 Bft)
09.03.2021 16:05 6,3 C 4,5 C 5,5 C 7,9 C 7,9 C 1,6 C 44 % 49 % 1019,5 hPa 0,0 l/m 0,0 km/h (0 Bft) N-NO 22 0 min -5,0 C 7,9 C 0,0 km/h (0 Bft)
09.03.2021 16:10 6,3 C 4,5 C 5,6 C 7,9 C 7,9 C 1,6 C 44 % 48 % 1019,4 hPa 0,0 l/m 0,0 km/h (0 Bft) N-NO 22 0 min -5,0 C 7,9 C 0,0 km/h (0 Bft)
09.03.2021 16:15 6,3 C 4,5 C 5,6 C 7,8 C 7,8 C 1,5 C 44 % 50 % 1019,4 hPa 0,0 l/m 0,0 km/h (0 Bft) N-NO 22 0 min -5,0 C 7,8 C 0,0 km/h (0 Bft)
09.03.2021 16:20 6,4 C 4,5 C 5,5 C 7,6 C 7,6 C 1,2 C 44 % 50 % 1019,4 hPa 0,0 l/m 0,0 km/h (0 Bft) N-NO 22 0 min -4,9 C 7,6 C 0,0 km/h (0 Bft)
09.03.2021 16:25 6,4 C 4,5 C 5,6 C 7,5 C 7,5 C 1,1 C 45 % 51 % 1019,4 hPa 0,0 l/m 0,0 km/h (0 Bft) N-NO 22 0 min -4,6 C 7,5 C 0,0 km/h (0 Bft)
09.03.2021 16:30 6,6 C 4,5 C 5,7 C 7,9 C 7,9 C 1,3 C 45 % 51 % 1019,0 hPa 0,0 l/m 0,0 km/h (0 Bft) N-NO 22 0 min -4,5 C 7,9 C 0,0 km/h (0 Bft)
09.03.2021 16:35 6,6 C 4,5 C 5,6 C 7,9 C 7,9 C 1,3 C 45 % 50 % 1019,0 hPa 0,0 l/m 0,0 km/h (0 Bft) N-NO 22 0 min -4,5 C 7,9 C 0,0 km/h (0 Bft)
09.03.2021 16:40 6,5 C 4,5 C 5,6 C 7,7 C 7,7 C 1,2 C 44 % 50 % 1019,0 hPa 0,0 l/m 0,0 km/h (0 Bft) N-NO 22 0 min -4,9 C 7,7 C 0,0 km/h (0 Bft)
09.03.2021 16:45 6,4 C 4,5 C 5,5 C 7,5 C 7,5 C 1,1 C 44 % 51 % 1019,0 hPa 0,0 l/m 0,0 km/h (0 Bft) N-NO 22 0 min -4,9 C 7,5 C 0,0 km/h (0 Bft)
09.03.2021 16:50 6,3 C 4,5 C 5,4 C 7,2 C 7,2 C 0,9 C 44 % 50 % 1019,1 hPa 0,0 l/m 0,0 km/h (0 Bft) N-NO 22 0 min -5,0 C 7,2 C 0,0 km/h (0 Bft)
09.03.2021 16:55 6,3 C 4,5 C 5,3 C 7,1 C 7,1 C 0,8 C 45 % 51 % 1019,1 hPa 0,0 l/m 0,0 km/h (0 Bft) N-NO 22 0 min -4,7 C 7,1 C 0,0 km/h (0 Bft)
09.03.2021 17:00 6,3 C 4,7 C 5,1 C 6,8 C 6,8 C 0,5 C 45 % 51 % 1019,1 hPa 0,0 l/m 0,0 km/h (0 Bft) N-NO 22 0 min -4,7 C 6,8 C 0,0 km/h (0 Bft)
09.03.2021 17:05 6,1 C 4,7 C 5,1 C 6,7 C 6,7 C 0,6 C 45 % 51 % 1019,1 hPa 0,0 l/m 0,0 km/h (0 Bft) O 90 0 min -4,9 C 6,7 C 0,0 km/h (0 Bft)
09.03.2021 17:10 6,0 C 4,7 C 5,1 C 6,7 C 6,7 C 0,7 C 45 % 50 % 1019,2 hPa 0,0 l/m 0,2 km/h (0 Bft) NO 45 0 min -5,0 C 6,7 C 0,0 km/h (0 Bft)
09.03.2021 17:15 5,9 C 4,7 C 4,9 C 6,7 C 6,7 C 0,8 C 44 % 49 % 1019,2 hPa 0,0 l/m 0,2 km/h (0 Bft) O-NO 67 0 min -5,4 C 6,7 C 0,0 km/h (0 Bft)
09.03.2021 17:20 5,7 C 4,7 C 4,8 C 6,3 C 6,3 C 0,6 C 44 % 49 % 1019,2 hPa 0,0 l/m 0,0 km/h (0 Bft) O-NO 67 0 min -5,6 C 6,3 C 0,0 km/h (0 Bft)
09.03.2021 17:25 5,6 C 4,7 C 4,7 C 6,0 C 6,0 C 0,4 C 44 % 49 % 1019,2 hPa 0,0 l/m 0,0 km/h (0 Bft) O-NO 67 0 min -5,7 C 6,0 C 0,0 km/h (0 Bft)
09.03.2021 17:30 5,6 C 4,7 C 4,4 C 5,6 C 5,6 C 0,0 C 44 % 49 % 1019,1 hPa 0,0 l/m 0,0 km/h (0 Bft) O-NO 67 0 min -5,7 C 5,6 C 0,0 km/h (0 Bft)
09.03.2021 17:35 5,4 C 4,7 C 4,3 C 5,4 C 5,4 C 0,0 C 44 % 50 % 1019,1 hPa 0,0 l/m 0,0 km/h (0 Bft) NO 45 0 min -5,9 C 5,4 C 0,0 km/h (0 Bft)
09.03.2021 17:40 5,3 C 4,7 C 4,1 C 5,2 C 5,1 C 0,0 C 45 % 52 % 1019,1 hPa 0,0 l/m 0,0 km/h (0 Bft) NO 45 0 min -5,7 C 5,1 C 0,0 km/h (0 Bft)
09.03.2021 17:45 5,3 C 4,7 C 3,9 C 5,1 C 4,8 C 0,0 C 46 % 53 % 1019,1 hPa 0,0 l/m 0,0 km/h (0 Bft) NO 45 0 min -5,4 C 4,8 C 0,0 km/h (0 Bft)
09.03.2021 17:50 5,0 C 4,7 C 3,6 C 4,8 C 4,5 C 0,0 C 47 % 54 % 1019,4 hPa 0,0 l/m 0,0 km/h (0 Bft) NO 45 0 min -5,4 C 4,5 C 0,0 km/h (0 Bft)
09.03.2021 17:55 4,9 C 4,7 C 3,3 C 4,6 C 4,1 C 0,0 C 48 % 55 % 1019,4 hPa 0,0 l/m 0,0 km/h (0 Bft) NO 45 0 min -5,2 C 4,1 C 0,0 km/h (0 Bft)
09.03.2021 18:00 4,7 C 4,7 C 3,0 C 4,3 C 3,5 C 0,0 C 49 % 56 % 1019,4 hPa 0,0 l/m 0,0 km/h (0 Bft) NO 45 0 min -5,1 C 3,5 C 0,0 km/h (0 Bft)
09.03.2021 18:05 4,5 C 4,7 C 2,8 C 4,1 C 3,3 C 0,0 C 51 % 57 % 1019,4 hPa 0,0 l/m 0,0 km/h (0 Bft) NO 45 0 min -4,7 C 3,3 C 0,0 km/h (0 Bft)
09.03.2021 18:10 4,2 C 4,7 C 2,6 C 3,8 C 3,0 C 0,0 C 52 % 59 % 1019,3 hPa 0,0 l/m 0,0 km/h (0 Bft) NO 45 0 min -4,8 C 3,0 C 0,0 km/h (0 Bft)
09.03.2021 18:15 4,0 C 4,7 C 2,5 C 3,5 C 2,6 C 0,0 C 52 % 59 % 1019,3 hPa 0,0 l/m 0,0 km/h (0 Bft) NO 45 0 min -4,9 C 2,6 C 0,0 km/h (0 Bft)
09.03.2021 18:20 3,8 C 4,7 C 2,3 C 3,3 C 2,2 C 0,0 C 53 % 61 % 1019,3 hPa 0,0 l/m 0,0 km/h (0 Bft) NO 45 0 min -4,9 C 2,2 C 0,0 km/h (0 Bft)
09.03.2021 18:25 3,7 C 4,7 C 2,1 C 3,1 C 1,9 C 0,0 C 53 % 61 % 1019,3 hPa 0,0 l/m 0,0 km/h (0 Bft) NO 45 0 min -5,0 C 1,9 C 0,0 km/h (0 Bft)
09.03.2021 18:30 3,5 C 4,7 C 1,9 C 2,9 C 1,7 C 0,0 C 54 % 62 % 1019,5 hPa 0,0 l/m 0,0 km/h (0 Bft) NO 45 0 min -4,9 C 1,7 C 0,0 km/h (0 Bft)
09.03.2021 18:35 3,3 C 4,7 C 1,9 C 2,8 C 1,7 C 0,0 C 55 % 63 % 1019,5 hPa 0,0 l/m 0,0 km/h (0 Bft) NO 45 0 min -4,9 C 1,7 C 0,0 km/h (0 Bft)
09.03.2021 18:40 3,1 C 4,7 C 1,7 C 2,6 C 1,7 C 0,0 C 55 % 63 % 1019,5 hPa 0,0 l/m 0,0 km/h (0 Bft) NO 45 0 min -5,0 C 1,7 C 0,0 km/h (0 Bft)
09.03.2021 18:45 3,0 C 4,8 C 1,6 C 2,5 C 1,6 C 0,0 C 56 % 65 % 1019,5 hPa 0,0 l/m 0,0 km/h (0 Bft) NO 45 0 min -4,9 C 1,6 C 0,0 km/h (0 Bft)
09.03.2021 18:50 2,8 C 4,9 C 1,5 C 2,4 C 1,6 C 0,0 C 58 % 67 % 1019,5 hPa 0,0 l/m 0,0 km/h (0 Bft) NO 45 0 min -4,6 C 1,6 C 0,0 km/h (0 Bft)
09.03.2021 18:55 2,7 C 4,9 C 1,4 C 2,3 C 1,5 C 0,0 C 59 % 68 % 1019,5 hPa 0,0 l/m 0,0 km/h (0 Bft) NO 45 0 min -4,5 C 1,5 C 0,0 km/h (0 Bft)
09.03.2021 19:00 2,7 C 4,9 C 1,3 C 2,3 C 1,6 C 0,0 C 61 % 69 % 1019,5 hPa 0,0 l/m 0,0 km/h (0 Bft) NO 45 0 min -4,1 C 1,6 C 0,0 km/h (0 Bft)
09.03.2021 19:05 2,5 C 4,9 C 1,3 C 2,2 C 1,6 C 0,0 C 61 % 69 % 1019,5 hPa 0,0 l/m 0,0 km/h (0 Bft) NO 45 0 min -4,2 C 1,6 C 0,0 km/h (0 Bft)
09.03.2021 19:10 2,4 C 4,9 C 1,2 C 2,0 C 1,3 C 0,0 C 61 % 69 % 1020,0 hPa 0,0 l/m 0,0 km/h (0 Bft) NO 45 0 min -4,3 C 1,3 C 0,0 km/h (0 Bft)
09.03.2021 19:15 2,3 C 4,9 C 1,1 C 1,9 C 1,2 C 0,0 C 61 % 69 % 1020,0 hPa 0,0 l/m 0,0 km/h (0 Bft) NO 45 0 min -4,4 C 1,2 C 0,0 km/h (0 Bft)
09.03.2021 19:20 2,1 C 4,9 C 0,9 C 1,7 C 0,9 C 0,0 C 61 % 69 % 1020,0 hPa 0,0 l/m 0,0 km/h (0 Bft) NO 45 0 min -4,6 C 0,9 C 0,0 km/h (0 Bft)
09.03.2021 19:25 2,1 C 4,9 C 0,9 C 1,7 C 0,8 C 0,0 C 62 % 71 % 1020,0 hPa 0,0 l/m 0,0 km/h (0 Bft) NO 45 0 min -4,4 C 0,8 C 0,0 km/h (0 Bft)
09.03.2021 19:30 2,0 C 4,9 C 0,8 C 1,5 C 0,6 C 0,0 C 64 % 72 % 1019,9 hPa 0,0 l/m 0,0 km/h (0 Bft) NO 45 0 min -4,1 C 0,6 C 0,0 km/h (0 Bft)
09.03.2021 19:35 1,9 C 4,9 C 0,8 C 1,5 C 0,6 C 0,0 C 64 % 72 % 1019,9 hPa 0,0 l/m 0,0 km/h (0 Bft) NO 45 0 min -4,2 C 0,6 C 0,0 km/h (0 Bft)
09.03.2021 19:40 1,8 C 4,9 C 0,7 C 1,4 C 0,5 C 0,0 C 65 % 72 % 1019,9 hPa 0,0 l/m 0,0 km/h (0 Bft) S-SW 202 0 min -4,1 C 0,5 C 0,0 km/h (0 Bft)
09.03.2021 19:45 1,7 C 4,9 C 0,7 C 1,3 C 0,5 C 0,0 C 65 % 73 % 1019,9 hPa 0,0 l/m 0,0 km/h (0 Bft) S-SW 202 0 min -4,2 C 0,5 C 0,0 km/h (0 Bft)
09.03.2021 19:50 1,7 C 4,9 C 0,5 C 1,2 C 0,3 C 0,0 C 66 % 73 % 1020,4 hPa 0,0 l/m 0,0 km/h (0 Bft) S-SW 202 0 min -4,0 C 0,3 C 0,0 km/h (0 Bft)
09.03.2021 19:55 1,5 C 4,9 C 0,4 C 1,1 C 0,2 C 0,0 C 66 % 73 % 1020,4 hPa 0,0 l/m 0,0 km/h (0 Bft) S-SW 202 0 min -4,1 C 0,2 C 0,0 km/h (0 Bft)
09.03.2021 20:00 1,4 C 4,9 C 0,3 C 1,0 C 0,1 C 0,0 C 66 % 73 % 1020,4 hPa 0,0 l/m 0,0 km/h (0 Bft) S-SW 202 0 min -4,2 C 0,1 C 0,0 km/h (0 Bft)
09.03.2021 20:05 1,2 C 4,9 C 0,3 C 0,8 C 0,1 C 0,0 C 66 % 73 % 1020,4 hPa 0,0 l/m 0,0 km/h (0 Bft) S-SW 202 0 min -4,4 C 0,1 C 0,0 km/h (0 Bft)
09.03.2021 20:10 1,2 C 4,9 C 0,4 C 0,8 C 0,1 C 0,0 C 67 % 74 % 1020,7 hPa 0,0 l/m 0,0 km/h (0 Bft) S-SW 202 0 min -4,2 C 0,1 C 0,0 km/h (0 Bft)
09.03.2021 20:15 1,2 C 4,9 C 0,3 C 0,8 C 0,1 C 0,0 C 67 % 74 % 1020,7 hPa 0,0 l/m 0,0 km/h (0 Bft) S-SW 202 0 min -4,2 C 0,1 C 0,0 km/h (0 Bft)
09.03.2021 20:20 1,1 C 4,9 C 0,4 C 0,8 C 0,1 C 0,0 C 68 % 74 % 1020,7 hPa 0,0 l/m 0,0 km/h (0 Bft) S-SW 202 0 min -4,1 C 0,1 C 0,0 km/h (0 Bft)
09.03.2021 20:25 1,2 C 4,9 C 0,5 C 0,9 C 0,4 C 0,0 C 68 % 75 % 1020,7 hPa 0,0 l/m 0,0 km/h (0 Bft) S-SW 202 0 min -4,0 C 0,4 C 0,0 km/h (0 Bft)
09.03.2021 20:30 1,5 C 4,9 C 0,7 C 1,2 C 0,7 C 0,0 C 69 % 75 % 1020,8 hPa 0,0 l/m 0,0 km/h (0 Bft) S-SW 202 0 min -3,6 C 0,7 C 0,0 km/h (0 Bft)
09.03.2021 20:35 1,6 C 4,9 C 0,7 C 1,3 C 0,8 C 0,0 C 69 % 75 % 1020,8 hPa 0,0 l/m 0,0 km/h (0 Bft) S-SW 202 0 min -3,5 C 0,8 C 0,0 km/h (0 Bft)
09.03.2021 20:40 1,6 C 4,9 C 0,7 C 1,4 C 1,0 C 0,0 C 69 % 76 % 1020,8 hPa 0,0 l/m 0,0 km/h (0 Bft) S-SW 202 0 min -3,5 C 1,0 C 0,0 km/h (0 Bft)
09.03.2021 20:45 1,6 C 4,9 C 0,7 C 1,4 C 1,0 C 0,0 C 70 % 76 % 1020,8 hPa 0,0 l/m 0,0 km/h (0 Bft) S-SW 202 0 min -3,3 C 1,0 C 0,0 km/h (0 Bft)
09.03.2021 20:50 1,6 C 4,9 C 0,7 C 1,4 C 1,0 C 0,0 C 70 % 76 % 1020,6 hPa 0,0 l/m 0,0 km/h (0 Bft) S-SW 202 0 min -3,3 C 1,0 C 0,0 km/h (0 Bft)
09.03.2021 20:55 1,6 C 4,9 C 0,7 C 1,4 C 1,1 C 0,0 C 70 % 76 % 1020,6 hPa 0,0 l/m 0,0 km/h (0 Bft) S-SW 202 0 min -3,3 C 1,1 C 0,0 km/h (0 Bft)
09.03.2021 21:00 1,7 C 4,9 C 0,8 C 1,5 C 1,2 C 0,0 C 72 % 77 % 1020,6 hPa 0,0 l/m 0,0 km/h (0 Bft) S-SW 202 0 min -2,8 C 1,2 C 0,0 km/h (0 Bft)
09.03.2021 21:05 1,7 C 4,9 C 0,8 C 1,5 C 1,2 C 0,0 C 72 % 77 % 1020,6 hPa 0,0 l/m 0,0 km/h (0 Bft) S-SW 202 0 min -2,8 C 1,2 C 0,0 km/h (0 Bft)
09.03.2021 21:10 1,7 C 4,9 C 1,0 C 1,5 C 1,2 C 0,0 C 72 % 78 % 1020,8 hPa 0,0 l/m 0,0 km/h (0 Bft) S-SW 202 0 min -2,8 C 1,2 C 0,0 km/h (0 Bft)
09.03.2021 21:15 1,9 C 4,9 C 1,0 C 1,7 C 1,3 C 0,0 C 73 % 79 % 1020,8 hPa 0,0 l/m 0,0 km/h (0 Bft) S-SW 202 0 min -2,4 C 1,3 C 0,0 km/h (0 Bft)
09.03.2021 21:20 1,9 C 4,9 C 1,2 C 1,8 C 1,5 C 0,0 C 74 % 79 % 1020,8 hPa 0,0 l/m 0,2 km/h (0 Bft) S-SW 202 0 min -2,2 C 1,5 C 0,0 km/h (0 Bft)
09.03.2021 21:25 2,0 C 4,9 C 1,3 C 1,9 C 1,6 C 0,0 C 74 % 80 % 1020,8 hPa 0,0 l/m 0,2 km/h (0 Bft) SO 135 0 min -2,1 C 1,6 C 0,0 km/h (0 Bft)
09.03.2021 21:30 2,0 C 4,9 C 1,3 C 1,9 C 1,6 C 0,0 C 74 % 80 % 1020,9 hPa 0,0 l/m 0,2 km/h (0 Bft) S 180 0 min -2,1 C 1,6 C 0,0 km/h (0 Bft)
09.03.2021 21:35 2,0 C 4,9 C 1,4 C 1,9 C 1,6 C 0,0 C 74 % 80 % 1020,9 hPa 0,0 l/m 0,2 km/h (0 Bft) S 180 0 min -2,1 C 1,6 C 0,0 km/h (0 Bft)
09.03.2021 21:40 2,0 C 4,9 C 1,4 C 1,8 C 1,5 C 0,0 C 75 % 80 % 1020,9 hPa 0,0 l/m 0,0 km/h (0 Bft) S 180 0 min -2,0 C 1,5 C 0,0 km/h (0 Bft)
09.03.2021 21:45 2,0 C 4,9 C 1,3 C 1,8 C 1,4 C 0,0 C 75 % 80 % 1020,9 hPa 0,0 l/m 0,0 km/h (0 Bft) S 180 0 min -2,0 C 1,4 C 0,0 km/h (0 Bft)
09.03.2021 21:50 2,1 C 4,9 C 1,3 C 1,8 C 1,3 C 0,0 C 76 % 80 % 1021,0 hPa 0,0 l/m 0,0 km/h (0 Bft) S 180 0 min -1,7 C 1,3 C 0,0 km/h (0 Bft)
09.03.2021 21:55 2,0 C 4,9 C 1,3 C 1,8 C 1,3 C 0,0 C 76 % 80 % 1021,0 hPa 0,0 l/m 0,0 km/h (0 Bft) S 180 0 min -1,8 C 1,3 C 0,0 km/h (0 Bft)
09.03.2021 22:00 1,9 C 4,9 C 1,2 C 1,7 C 1,2 C 0,0 C 76 % 81 % 1021,0 hPa 0,0 l/m 0,0 km/h (0 Bft) S 180 0 min -1,9 C 1,2 C 0,0 km/h (0 Bft)
09.03.2021 22:05 1,9 C 4,9 C 1,1 C 1,6 C 1,1 C 0,0 C 76 % 81 % 1021,0 hPa 0,0 l/m 0,0 km/h (0 Bft) S 180 0 min -1,9 C 1,1 C 0,0 km/h (0 Bft)
09.03.2021 22:10 1,8 C 4,9 C 1,0 C 1,5 C 0,9 C 0,0 C 76 % 81 % 1020,9 hPa 0,0 l/m 0,0 km/h (0 Bft) S 180 0 min -2,0 C 0,9 C 0,0 km/h (0 Bft)
09.03.2021 22:15 1,7 C 4,9 C 0,9 C 1,4 C 0,8 C 0,0 C 76 % 81 % 1020,9 hPa 0,0 l/m 0,0 km/h (0 Bft) S 180 0 min -2,1 C 0,8 C 0,0 km/h (0 Bft)
09.03.2021 22:20 1,6 C 4,9 C 0,8 C 1,3 C 0,7 C 0,0 C 76 % 81 % 1020,9 hPa 0,0 l/m 0,0 km/h (0 Bft) S 180 0 min -2,2 C 0,7 C 0,0 km/h (0 Bft)
09.03.2021 22:25 1,6 C 4,9 C 0,7 C 1,2 C 0,5 C 0,0 C 76 % 82 % 1020,9 hPa 0,0 l/m 0,0 km/h (0 Bft) S 180 0 min -2,2 C 0,5 C 0,0 km/h (0 Bft)
09.03.2021 22:30 1,5 C 4,9 C 0,7 C 1,2 C 0,5 C 0,0 C 77 % 82 % 1020,8 hPa 0,0 l/m 0,0 km/h (0 Bft) S 180 0 min -2,1 C 0,5 C 0,0 km/h (0 Bft)
09.03.2021 22:35 1,5 C 4,9 C 0,7 C 1,1 C 0,4 C 0,0 C 77 % 82 % 1020,8 hPa 0,0 l/m 0,0 km/h (0 Bft) S 180 0 min -2,1 C 0,4 C 0,0 km/h (0 Bft)
09.03.2021 22:40 1,5 C 4,9 C 0,6 C 1,1 C 0,3 C 0,0 C 77 % 82 % 1020,8 hPa 0,0 l/m 0,0 km/h (0 Bft) S 180 0 min -2,1 C 0,3 C 0,0 km/h (0 Bft)
09.03.2021 22:45 1,3 C 4,9 C 0,6 C 1,0 C 0,3 C 0,0 C 77 % 82 % 1020,8 hPa 0,0 l/m 0,0 km/h (0 Bft) S 180 0 min -2,3 C 0,3 C 0,0 km/h (0 Bft)
09.03.2021 22:50 1,2 C 4,9 C 0,6 C 0,9 C 0,3 C 0,0 C 77 % 83 % 1020,8 hPa 0,0 l/m 0,0 km/h (0 Bft) S 180 0 min -2,4 C 0,3 C 0,0 km/h (0 Bft)
09.03.2021 22:55 1,3 C 4,9 C 0,6 C 1,0 C 0,3 C 0,0 C 77 % 83 % 1020,8 hPa 0,0 l/m 0,0 km/h (0 Bft) S 180 0 min -2,3 C 0,3 C 0,0 km/h (0 Bft)
09.03.2021 23:00 1,2 C 4,9 C 0,5 C 1,0 C 0,5 C 0,0 C 78 % 83 % 1020,8 hPa 0,0 l/m 0,0 km/h (0 Bft) S 180 0 min -2,2 C 0,5 C 0,0 km/h (0 Bft)
09.03.2021 23:05 1,2 C 4,9 C 0,5 C 1,0 C 0,5 C 0,0 C 78 % 84 % 1020,8 hPa 0,0 l/m 0,0 km/h (0 Bft) S 180 0 min -2,2 C 0,5 C 0,0 km/h (0 Bft)
09.03.2021 23:10 1,2 C 4,9 C 0,5 C 1,0 C 0,5 C 0,0 C 79 % 84 % 1020,8 hPa 0,0 l/m 0,0 km/h (0 Bft) S 180 0 min -2,0 C 0,5 C 0,0 km/h (0 Bft)
09.03.2021 23:15 1,2 C 4,9 C 0,5 C 1,0 C 0,5 C 0,0 C 79 % 84 % 1020,8 hPa 0,0 l/m 0,0 km/h (0 Bft) S 180 0 min -2,0 C 0,5 C 0,0 km/h (0 Bft)
09.03.2021 23:20 1,2 C 4,9 C 0,4 C 1,0 C 0,5 C 0,0 C 79 % 84 % 1020,8 hPa 0,0 l/m 0,0 km/h (0 Bft) S 180 0 min -2,0 C 0,5 C 0,0 km/h (0 Bft)
09.03.2021 23:25 1,1 C 4,9 C 0,4 C 0,9 C 0,4 C 0,0 C 79 % 84 % 1020,8 hPa 0,0 l/m 0,0 km/h (0 Bft) S 180 0 min -2,1 C 0,4 C 0,0 km/h (0 Bft)
09.03.2021 23:30 1,1 C 4,9 C 0,4 C 0,8 C 0,3 C 0,0 C 79 % 84 % 1020,7 hPa 0,0 l/m 0,0 km/h (0 Bft) S 180 0 min -2,1 C 0,3 C 0,0 km/h (0 Bft)
09.03.2021 23:35 1,1 C 4,9 C 0,4 C 0,8 C 0,2 C 0,0 C 80 % 84 % 1020,7 hPa 0,0 l/m 0,0 km/h (0 Bft) S 180 0 min -2,0 C 0,2 C 0,0 km/h (0 Bft)
09.03.2021 23:40 1,1 C 4,9 C 0,4 C 0,8 C 0,1 C 0,0 C 80 % 85 % 1020,7 hPa 0,0 l/m 0,0 km/h (0 Bft) S 180 0 min -2,0 C 0,1 C 0,0 km/h (0 Bft)
09.03.2021 23:45 0,9 C 4,9 C 0,4 C 0,6 C 0,1 C 0,0 C 80 % 85 % 1020,7 hPa 0,0 l/m 0,0 km/h (0 Bft) S 180 0 min -2,2 C 0,1 C 0,0 km/h (0 Bft)
09.03.2021 23:50 0,9 C 4,9 C 0,4 C 0,6 C 0,1 C 0,0 C 80 % 85 % 1020,4 hPa 0,0 l/m 0,0 km/h (0 Bft) S 180 0 min -2,2 C 0,1 C 0,0 km/h (0 Bft)
09.03.2021 23:55 0,8 C 4,9 C 0,4 C 0,6 C 0,1 C 0,0 C 80 % 85 % 1020,4 hPa 0,0 l/m 0,0 km/h (0 Bft) S 180 0 min -2,2 C 0,1 C 0,0 km/h (0 Bft)
_ Min-Zeit 02:10 10:25 00:00 02:10 00:00 00:00 15:25 15:25 16:30 - 00:00 - - - 00:00 00:00 00:00
Minimum _ -4,3 C 3,6 C -4,1 C -4,7 C -5,6 C 0,0 C 43 % 47 % 1019,0 hPa - 0,0 km/h (0 Bft) - - - -6,7 C -5,6 C 0,0 km/h (0 Bft)
_ Max-Zeit 14:45 18:50 14:35 14:20 14:20 13:50 07:50 06:50 00:00 00:00 13:00 - - 09:40 10:10 14:20 12:50
Maximum _ 7,2 C 4,9 C 6,7 C 14,4 C 14,4 C 8,0 C 88 % 91 % 1023,9 hPa 0,0 l/m 1,6 km/h
O-NO (1 Bft)
- - 5 min -0,5 C 14,4 C 7,9 km/h
NO (2 Bft)
Durchschnitt _ 0,8 C 4,4 C 0,7 C 2,0 C 1,6 C 1,4 C 71 % 75 % 1021,2 hPa #0,0 l/m 0,1 km/h (0 Bft) O-NO - #5:05 h -4,3 C 1,6 C 0,2 km/h (0 Bft)
2021 www.wetterstation-wechselburg.de